• In Russia
  • List of Countries
  • For 7 days
  • Water Temperature
  • Satellite Maps
  • Weather Map
  • Weather Widgets
  • user-avatar
    Login

    Hourly Weather Kaprun

    Today, 21 August, Monday

    Time Temperature Precipitation Wind Pressure Humidity
    00:00 +1°C° 0 mm 2 mps 601 mmHg 94%
    01:00 +2°C° 0 mm 1 mps 600 mmHg 93%
    02:00 +2°C° 0 mm 1 mps 600 mmHg 93%
    03:00 +2°C° 0 mm 1 mps 600 mmHg 92%
    04:00 +1°C° 0 mm 1 mps 600 mmHg 91%
    05:00 +3°C° 0 mm 1 mps 600 mmHg 86%
    06:00 +3°C° 0 mm 2 mps 601 mmHg 82%
    07:00 +4°C° 0 mm 2 mps 601 mmHg 77%
    08:00 +6°C° 0 mm 2 mps 602 mmHg 68%
    09:00 +8°C° 0 mm 2 mps 603 mmHg 58%
    10:00 +10°C° 0 mm 2 mps 604 mmHg 49%
    11:00 +12°C° 0 mm 2 mps 604 mmHg 46%
    12:00 +12°C° 0 mm 2 mps 604 mmHg 44%
    13:00 +13°C° 0 mm 2 mps 604 mmHg 42%
    14:00 +13°C° 0 mm 2 mps 604 mmHg 45%
    15:00 +12°C° 0 mm 2 mps 604 mmHg 48%
    16:00 +12°C° 0 mm 2 mps 603 mmHg 51%
    17:00 +9°C° 0 mm 2 mps 603 mmHg 62%
    18:00 +7°C° 0 mm 2 mps 602 mmHg 73%
    19:00 +6°C° 0 mm 1 mps 601 mmHg 83%
    20:00 +5°C° 0 mm 1 mps 601 mmHg 87%
    21:00 +4°C° 0 mm 1 mps 601 mmHg 90%
    22:00 +3°C° 0 mm 1 mps 601 mmHg 93%
    23:00 +3°C° 0 mm 1 mps 601 mmHg 93%

    Tomorrow, 22 August, Tuesday

    Time Temperature Precipitation Wind Pressure Humidity
    00:00 +3°C° 0 mm 1 mps 600 mmHg 92%
    01:00 +3°C° 0 mm 1 mps 600 mmHg 92%
    02:00 +3°C° 0 mm 1 mps 600 mmHg 91%
    03:00 +2°C° 0 mm 1 mps 600 mmHg 89%
    04:00 +2°C° 0 mm 1 mps 600 mmHg 88%
    05:00 +4°C° 0 mm 1 mps 601 mmHg 83%
    06:00 +5°C° 0 mm 1 mps 601 mmHg 78%
    07:00 +7°C° 0 mm 1 mps 602 mmHg 73%
    08:00 +9°C° 0 mm 1 mps 603 mmHg 65%
    09:00 +12°C° 0 mm 1 mps 604 mmHg 57%
    10:00 +14°C° 0 mm 1 mps 605 mmHg 49%
    11:00 +15°C° 0 mm 1 mps 604 mmHg 47%
    12:00 +16°C° 0 mm 1 mps 604 mmHg 46%
    13:00 +16°C° 0 mm 2 mps 604 mmHg 44%
    14:00 +16°C° 0 mm 2 mps 604 mmHg 48%
    15:00 +16°C° 0 mm 2 mps 603 mmHg 51%
    16:00 +15°C° 0 mm 2 mps 603 mmHg 54%
    17:00 +13°C° 0.1 mm 2 mps 602 mmHg 66%
    18:00 +10°C° 0.1 mm 2 mps 601 mmHg 78%
    19:00 +9°C° 0.1 mm 1 mps 600 mmHg 90%
    20:00 +8°C° 0 mm 1 mps 600 mmHg 92%
    21:00 +7°C° 0 mm 1 mps 600 mmHg 94%
    22:00 +6°C° 0 mm 1 mps 600 mmHg 96%
    23:00 +6°C° 0 mm 1 mps 599 mmHg 96%

    Day after tomorrow, 23 August, Wednesday

    Time Temperature Precipitation Wind Pressure Humidity
    00:00 +5°C° 0 mm 1 mps 599 mmHg 95%
    01:00 +5°C° 0 mm 1 mps 599 mmHg 95%
    02:00 +5°C° 0 mm 1 mps 599 mmHg 94%
    03:00 +5°C° 0 mm 1 mps 599 mmHg 92%
    04:00 +4°C° 0 mm 1 mps 599 mmHg 91%
    05:00 +6°C° 0 mm 1 mps 599 mmHg 86%
    06:00 +7°C° 0 mm 1 mps 600 mmHg 81%
    07:00 +9°C° 0 mm 1 mps 601 mmHg 76%
    08:00 +11°C° 0 mm 1 mps 602 mmHg 65%
    09:00 +14°C° 0 mm 1 mps 603 mmHg 54%
    10:00 +16°C° 0 mm 0 mps 604 mmHg 44%
    11:00 +19°C° 0 mm 1 mps 604 mmHg 42%
    12:00 +19°C° 0 mm 1 mps 604 mmHg 40%
    13:00 +20°C° 0 mm 1 mps 605 mmHg 38%
    14:00 +20°C° 0.1 mm 1 mps 604 mmHg 41%
    15:00 +19°C° 0.1 mm 1 mps 604 mmHg 45%
    16:00 +19°C° 0.1 mm 1 mps 604 mmHg 48%
    17:00 +15°C° 0.2 mm 1 mps 603 mmHg 60%
    18:00 +13°C° 0.2 mm 1 mps 601 mmHg 73%
    19:00 +9°C° 0.2 mm 0 mps 600 mmHg 85%
    20:00 +9°C° 0 mm 1 mps 600 mmHg 85%
    21:00 +9°C° 0 mm 1 mps 601 mmHg 85%
    22:00 +8°C° 0 mm 1 mps 601 mmHg 85%
    23:00 +8°C° 0 mm 1 mps 600 mmHg 84%

    24 August, Thursday

    Time Temperature Precipitation Wind Pressure Humidity
    00:00 +8°C° 0 mm 1 mps 600 mmHg 83%
    01:00 +7°C° 0 mm 1 mps 600 mmHg 82%
    02:00 +7°C° 0 mm 1 mps 600 mmHg 81%
    03:00 +7°C° 0 mm 1 mps 600 mmHg 80%
    04:00 +7°C° 0 mm 1 mps 600 mmHg 79%
    05:00 +8°C° 0 mm 1 mps 600 mmHg 76%
    06:00 +10°C° 0 mm 1 mps 601 mmHg 72%
    07:00 +11°C° 0 mm 1 mps 602 mmHg 69%
    08:00 +14°C° 0 mm 1 mps 603 mmHg 60%
    09:00 +18°C° 0 mm 1 mps 604 mmHg 51%
    10:00 +18°C° 0 mm 0 mps 605 mmHg 42%
    11:00 +21°C° 0 mm 1 mps 605 mmHg 42%
    12:00 +21°C° 0 mm 1 mps 605 mmHg 41%
    13:00 +20°C° 0 mm 2 mps 605 mmHg 40%
    14:00 +19°C° 0.2 mm 2 mps 605 mmHg 46%
    15:00 +19°C° 0.2 mm 2 mps 604 mmHg 53%
    16:00 +18°C° 0.2 mm 2 mps 604 mmHg 59%
    17:00 +16°C° 0.8 mm 1 mps 603 mmHg 69%
    18:00 +14°C° 0.8 mm 1 mps 602 mmHg 79%
    19:00 +12°C° 0.8 mm 1 mps 601 mmHg 90%
    20:00 +11°C° 0.4 mm 1 mps 601 mmHg 90%
    21:00 +11°C° 0.4 mm 1 mps 601 mmHg 90%
    22:00 +10°C° 0.4 mm 1 mps 601 mmHg 91%
    23:00 +10°C° 0 mm 1 mps 601 mmHg 90%

    25 August, Friday

    Time Temperature Precipitation Wind Pressure Humidity
    00:00 +9°C° 0 mm 1 mps 601 mmHg 90%
    01:00 +9°C° 0 mm 1 mps 600 mmHg 89%
    02:00 +7°C° 0.1 mm 2 mps 600 mmHg 89%
    03:00 +7°C° 0.1 mm 2 mps 600 mmHg 88%
    04:00 +7°C° 0.1 mm 2 mps 599 mmHg 87%
    05:00 +8°C° 0 mm 2 mps 600 mmHg 86%
    06:00 +9°C° 0 mm 2 mps 600 mmHg 84%
    07:00 +10°C° 0 mm 2 mps 601 mmHg 82%
    08:00 +13°C° 0 mm 2 mps 602 mmHg 73%
    09:00 +16°C° 0 mm 2 mps 603 mmHg 64%
    10:00 +18°C° 0 mm 2 mps 604 mmHg 55%
    11:00 +18°C° 0.3 mm 2 mps 603 mmHg 55%
    12:00 +19°C° 0.3 mm 2 mps 603 mmHg 56%
    13:00 +19°C° 0.3 mm 2 mps 603 mmHg 56%
    14:00 +18°C° 0.8 mm 2 mps 603 mmHg 63%
    15:00 +17°C° 0.8 mm 2 mps 602 mmHg 71%
    16:00 +16°C° 0.8 mm 2 mps 602 mmHg 78%
    17:00 +14°C° 1.2 mm 2 mps 601 mmHg 84%
    18:00 +13°C° 1.2 mm 1 mps 601 mmHg 90%
    19:00 +12°C° 1.2 mm 1 mps 601 mmHg 96%
    20:00 +11°C° 0.6 mm 1 mps 601 mmHg 97%
    21:00 +11°C° 0.6 mm 1 mps 601 mmHg 97%
    22:00 +11°C° 0.6 mm 1 mps 601 mmHg 98%
    23:00 +10°C° 0.4 mm 1 mps 601 mmHg 98%

    26 August, Saturday

    Time Temperature Precipitation Wind Pressure Humidity
    00:00 +10°C° 0.4 mm 1 mps 601 mmHg 97%
    01:00 +10°C° 0.4 mm 1 mps 601 mmHg 97%
    02:00 +9°C° 0.4 mm 1 mps 600 mmHg 96%
    03:00 +9°C° 0.4 mm 1 mps 600 mmHg 96%
    04:00 +8°C° 0.4 mm 1 mps 600 mmHg 95%
    05:00 +9°C° 0.1 mm 1 mps 600 mmHg 93%
    06:00 +10°C° 0.1 mm 1 mps 600 mmHg 91%
    07:00 +11°C° 0.1 mm 1 mps 601 mmHg 89%
    08:00 +13°C° 0.2 mm 2 mps 602 mmHg 80%
    09:00 +15°C° 0.2 mm 2 mps 603 mmHg 70%
    10:00 +17°C° 0.2 mm 2 mps 604 mmHg 61%
    11:00 +18°C° 0.7 mm 2 mps 604 mmHg 60%
    12:00 +18°C° 0.7 mm 2 mps 604 mmHg 60%
    13:00 +19°C° 0.7 mm 3 mps 603 mmHg 60%
    14:00 +18°C° 1.2 mm 3 mps 603 mmHg 61%
    15:00 +18°C° 1.2 mm 3 mps 603 mmHg 63%
    16:00 +18°C° 1.2 mm 3 mps 603 mmHg 65%
    17:00 +16°C° 1.3 mm 2 mps 602 mmHg 73%
    18:00 +14°C° 1.3 mm 2 mps 601 mmHg 81%
    19:00 +12°C° 1.3 mm 2 mps 600 mmHg 90%
    20:00 +10°C° 0.2 mm 2 mps 600 mmHg 91%
    21:00 +10°C° 0.2 mm 2 mps 600 mmHg 93%
    22:00 +9°C° 0.2 mm 2 mps 600 mmHg 94%
    23:00 +9°C° 0 mm 2 mps 599 mmHg 94%
    Show more